Location: Irma
(52.9170°N, 111.2330°W)
Time: 20:02:05
(UTC-07:00)

Daily predictions for brighter satellites

Satellite Brightness Start Highest point End
(mag) Time Altitude Azimuth Time Altitude Azimuth Time Altitude Azimuth
Cosmos 2322 4.2 17:23:49 10° SW 17:29:28 64° NW 17:35:11 10° NNE
Cosmos 1763 Rocket 3.5 17:25:34 10° SSW 17:30:45 77° ESE 17:35:55 10° NNE
Aureole 2 Rocket 4.3 17:27:56 10° SSE 17:30:50 20° E 17:33:53 10° NE
SL-16 R/B 3.6 17:25:50 10° WSW 17:30:54 32° NW 17:35:59 10° NNE
PAYLOAD A 4.5 17:25:34 10° S 17:30:58 74° WSW 17:36:17 10° NNW
Cosmos 1515 Rocket 3.6 17:27:54 10° N 17:32:25 82° E 17:36:52 10° SSE
Cosmos 540 Rocket 4.1 17:31:58 10° S 17:36:40 36° ESE 17:41:22 10° NE
IDEFIX/ARIANE 42P 2.7 17:31:29 10° SSE 17:36:44 89° WSW 17:42:02 10° NNW
SL-16 R/B 4.1 17:32:03 10° N 17:37:31 33° WNW 17:42:59 10° WSW
ATLAS 3B R/B 3.7 17:32:34 10° WNW 17:39:14 36° N 17:45:34 10° ENE
Cosmos 2084 3.6 17:36:00 10° SSW 17:39:41 45° SE 17:43:20 10° ENE
Cosmos 2360 Rocket 3.0 17:34:17 10° SW 17:39:45 51° NW 17:45:16 10° NNE
MTI 4.4 17:37:13 10° N 17:40:27 60° WNW 17:43:40 10° SSW
Cosmos 2058 3.9 17:37:15 10° SE 17:40:40 26° E 17:44:08 10° NNE
Cosmos 1980 Rocket 4.2 17:37:54 10° WNW 17:41:41 18° NNW 17:45:28 10° NNE
ATLAS 5 CENTAUR R/B 3.2 17:37:16 10° NW 17:42:04 30° N 17:47:17 10° ENE
Lacrosse 5 2.2 17:37:16 10° W 17:42:17 57° N 17:47:19 10° ENE
CORIOLIS 4.1 17:37:21 10° SSE 17:42:43 82° ENE 17:48:08 10° NNW
Cosmos 1900 4.3 17:38:29 10° NW 17:43:27 84° NE 17:48:28 10° SE
Cosmos 2333 4.2 17:38:37 10° SSW 17:44:14 88° ESE 17:49:53 10° NNE
Cosmos 1980 4.1 17:41:13 10° S 17:46:37 47° ESE 17:52:02 10° NE
USA 215 3.3 17:43:58 10° ESE 17:50:32 83° NNE 17:57:07 10° WNW
Cosmos 1500 Rocket 3.5 17:47:33 10° S 17:51:51 65° E 17:56:14 10° NNE
Cosmos 1626 3.8 17:49:40 10° ESE 17:51:59 16° E 17:54:09 11° NE
CZ-4 R/B 4.4 17:48:21 10° SSE 17:52:30 78° ENE 17:56:39 10° NNW
Lacrosse 5 rocket 3.7 17:49:51 10° W 17:52:55 24° SW 17:56:03 10° S
BREEZE-M DEB (TANK) 4.0 17:54:57 10° SSE 17:55:19 10° SSE 17:55:39 10° SE
Cosmos 332 Rocket 3.8 17:51:53 10° SSW 17:56:45 89° WNW 18:01:41 10° NNE
Cosmos 44 3.7 17:52:37 10° SSW 17:57:38 50° SE 18:02:08 12° NE
Sich 1 4.4 17:55:11 10° SE 17:58:20 19° E 18:01:28 10° NE
Cosmos 1943 Rocket 3.6 17:55:51 10° NNW 17:59:45 19° NNE 18:02:44 13° ENE
Cosmos 1726 2.4 17:56:04 10° NNW 17:59:51 75° W 18:03:38 10° S
NOSS 3-2 (A) 4.4 17:55:46 10° W 18:01:53 43° NNW 18:08:27 11° NE
CZ-2C R/B 3.2 17:58:08 10° S 18:02:57 56° W 18:07:38 10° NNW
Cosmos 2219 Rocket 2.2 17:57:37 10° SSW 18:03:15 84° ESE 18:08:55 10° NNE
NOSS 0 Rocket 4.0 17:58:07 10° SSW 18:04:16 65° ESE 18:10:25 10° NE
ALOS 3.3 18:02:53 10° ESE 18:06:33 23° ENE 18:10:14 10° N
Cosmos 1455 2.8 18:04:15 10° N 18:07:45 34° ENE 18:11:15 10° SE
Cosmos 1633 Rocket 4.3 18:05:25 10° SE 18:08:42 21° E 18:11:33 12° NE
NOSS 3-2 (C) 4.4 18:03:03 10° W 18:09:13 44° NNW 18:15:36 12° NE
Cosmos 1328 3.7 18:05:48 10° S 18:09:45 83° E 18:13:44 10° NNE
Cosmos 1674 4.0 18:06:26 10° SW 18:10:07 42° WNW 18:13:51 10° N
Cosmos 2333 Rocket 2.2 18:04:44 10° SSW 18:10:23 76° ESE 18:16:04 10° NE
Cosmos 2278 Rocket 3.6 18:06:33 10° NW 18:11:55 43° WSW 18:17:14 10° S
Cosmos 2322 Rocket 4.1 18:07:37 10° W 18:11:56 22° NNW 18:16:15 10° NNE
Abrixas 4.4 18:10:42 10° SSW 18:12:51 19° SSE 18:14:25 13° ESE
Cosmos 1242 Rocket 3.6 18:15:11 10° N 18:18:03 23° ENE 18:19:09 20° E
MSX 4.4 18:13:23 10° S 18:19:03 63° WSW 18:24:47 10° NNW
Helios 1A 4.5 18:19:57 18° NE 18:19:57 18° NE 18:22:38 10° NNE
CENTAUR R/B 2.9 18:14:31 10° WSW 18:20:54 68° NW 18:27:32 13° NE
USA 116 3.5 18:18:32 10° N 18:21:44 67° WNW 18:24:49 10° SSW
SMAP 4.5 18:18:04 10° S 18:22:29 42° W 18:26:56 10° NNW
Cosmos 1184 Rocket 4.3 18:20:08 10° SE 18:22:07 20° ESE 18:22:07 20° ESE
Cosmos 1703 3.6 18:19:41 10° SSE 18:23:21 40° E 18:27:02 10° NNE
Cosmos 371 Rocket 3.5 18:19:48 10° SSW 18:24:36 70° WNW 18:29:26 10° NNE
CZ-4 R/B 3.6 18:23:31 10° SSW 18:26:54 28° W 18:30:19 10° NW
Cosmos 1300 4.2 18:24:10 10° NNW 18:27:47 39° W 18:31:22 10° SSW
Cosmos 1707 Rocket 3.4 18:23:33 10° N 18:27:55 71° ENE 18:32:14 10° SSE
SJ-6B 3.2 18:24:02 10° SE 18:27:59 46° ENE 18:31:59 10° N
Cosmos 841 Rocket 4.4 18:24:18 10° SW 18:29:25 50° WNW 18:34:34 10° NNE
COSMO-SKYMED 1 2.6 18:25:57 10° NNE 18:30:16 57° E 18:34:32 10° S
Spot 2 Rocket 4.0 18:28:40 10° SE 18:33:15 37° ENE 18:37:52 10° N
Cosmos 2151 3.1 18:29:44 10° SSW 18:33:56 75° WNW 18:38:10 10° N
YAOGAN 1 4.4 18:30:47 10° SSW 18:34:45 35° W 18:38:46 10° NNW
Cosmos 2084 Rocket 3.4 18:31:27 10° NW 18:35:11 50° NE 18:36:52 28° E
Iridium 4 Rocket 3.8 18:32:36 10° SE 18:36:17 28° E 18:37:09 26° ENE
Thor Agena Rocket 3.7 18:33:47 10° NNE 18:39:04 75° WNW 18:44:13 10° SSW
Cosmos 2369 Rocket 2.6 18:34:17 10° NNW 18:39:40 41° NE 18:42:51 22° ESE
Cosmos 2237 Rocket 2.2 18:35:58 10° SSW 18:41:37 84° WNW 18:46:54 12° NNE
FREGAT/IRIS 2.6 18:40:19 10° SSE 18:43:19 56° ENE 18:46:21 10° N
Cosmos 1666 Rocket 3.7 18:40:26 10° S 18:44:39 50° E 18:48:41 11° NNE
FAST Rocket 4.4 18:43:00 10° S 18:45:37 48° E 18:46:08 42° ENE
SL-19 R/B 4.3 18:40:52 10° SE 18:46:29 61° ENE 18:51:58 10° NNW
Cosmos 44 Rocket 3.8 18:42:46 10° WSW 18:47:48 60° NW 18:51:14 20° NE
Cosmos 1538 Rocket 4.2 18:44:31 10° S 18:49:40 52° ESE 18:53:06 21° NE
SL-14 R/B 4.2 18:46:02 10° SSW 18:49:54 50° WNW 18:53:51 10° N
SL-16 R/B 2.2 18:44:37 10° SSW 18:50:09 58° ESE 18:53:50 21° NE
Cosmos 1484 Rocket 4.4 18:47:29 10° SSW 18:51:13 38° W 18:55:01 10° NNW
Meteor 1-28 Rocket 3.0 18:49:36 18° NNE 18:52:15 69° ESE 18:55:58 10° S
COSMOS 2428 4.0 18:47:33 10° WSW 18:52:47 36° NW 18:58:03 10° NNE
Cosmos 1340 Rocket 2.9 18:50:09 10° SSW 18:54:05 74° WNW 18:58:01 10° N
Cosmos 1371 Rocket 4.5 18:49:18 10° NNW 18:54:10 38° NE 18:55:31 33° E
Resurs 1-3 3.9 18:53:23 30° ESE 18:54:59 42° ENE 18:59:08 10° N
Resurs 01 Rocket 1.8 18:50:46 10° SE 18:55:04 50° ENE 18:59:23 10° N
Lacrosse 4 Rocket 1.8 18:53:02 10° NW 18:57:03 61° WSW 19:01:03 10° SSE
Cosmos 304 Rocket 3.7 18:53:27 10° SSW 18:58:16 84° ESE 19:01:36 20° NNE
Blok-2BL 3.4 18:55:14 10° NW 18:58:34 69° SW 18:59:40 38° SSE
Cosmos 1869 3.2 18:58:41 10° N 19:02:46 82° E 19:06:49 10° SSE
Meteor 2-10 Rocket 4.4 18:59:47 10° N 19:03:09 28° NE 19:03:09 28° NE
Cosmos 1867 3.7 18:59:59 10° NW 19:05:24 56° NE 19:07:15 38° E
Aureole 2 Rocket 3.5 19:02:02 10° SW 19:05:56 55° WNW 19:08:45 19° NNE
CZ-4C R/B 3.2 18:59:44 10° NW 19:05:56 44° NNE 19:08:40 32° ENE
Cosmos 921 Rocket 3.8 19:05:47 10° N 19:09:05 34° NNE 19:09:05 34° NNE
FENGYUN 3A 3.5 19:10:04 10° SSE 19:15:26 78° ENE 19:20:51 10° NNW
SL-16 R/B 4.4 19:13:52 10° NW 19:16:55 14° NNW 19:19:57 10° NNE
Cosmos 2058 4.4 19:13:41 10° SW 19:17:30 36° WNW 19:21:20 10° N
H-2A R/B 4.3 19:19:56 24° N 19:19:56 24° N 19:21:34 10° N
SKYMED 2 4.3 19:14:06 10° N 19:18:21 53° WNW 19:22:35 10° SW
Cosmos 2084 4.2 19:15:43 10° W 19:19:17 37° NNW 19:20:03 33° N
Cosmos 2242 Rocket 3.8 19:15:21 10° NNW 19:19:46 69° W 19:24:11 10° S
Cosmos 1805 Rocket 4.3 19:18:31 10° SSW 19:22:54 54° WNW 19:27:18 10° N
Spot 1 4.0 19:23:42 64° E 19:23:51 65° ENE 19:28:10 10° N
Cosmos 773 Rocket 3.9 19:18:51 10° SSW 19:23:58 67° ESE 19:25:15 49° NE
Cosmos 1461 2.6 19:20:46 10° SW 19:24:54 89° NW 19:25:03 82° NE
Cosmos 2360 Rocket 4.3 19:21:20 10° WNW 19:25:08 18° NNW 19:28:56 10° NNE
Lacrosse 5 1.9 19:20:45 10° WNW 19:25:48 61° NNE 19:26:32 54° NE
Cosmos 1626 2.8 19:23:17 10° SSW 19:26:58 53° WNW 19:28:54 25° N
ATLAS 5 CENTAUR R/B 2.4 19:22:12 10° NW 19:27:49 57° NE 19:28:57 49° ENE
Cosmos 1980 Rocket 4.3 19:25:56 10° NNW 19:28:09 12° N 19:29:34 11° NNE
S3M 4.1 19:22:50 10° N 19:29:01 49° ENE 19:29:52 47° E
ATLAS 3B R/B 3.3 19:24:56 10° NW 19:31:38 40° NNE 19:33:09 36° NE
USA 238 DEB 4.5 19:25:24 10° NW 19:31:55 38° NNE 19:33:45 33° NE
USA 238 4.5 19:25:30 10° NW 19:32:01 38° NNE 19:33:51 33° NE
USA 215 4.0 19:28:14 13° SSE 19:33:54 48° SW 19:40:13 10° WNW
Sich 1 3.6 19:31:14 10° SSW 19:35:37 59° WNW 19:39:05 16° N
Nadezhda 4 Rocket 4.2 19:29:49 10° SSW 19:36:06 74° WNW 19:42:29 10° N
Cosmos 1356 Rocket 4.2 19:33:31 10° SSW 19:37:23 48° WNW 19:39:19 26° N
Cosmos 44 4.3 19:34:08 10° WSW 19:39:01 43° NW 19:40:34 33° N
Cosmos 2026 Rocket 3.9 19:33:44 10° S 19:39:46 58° E 19:45:45 10° NNE
ALOS 2.7 19:39:02 10° S 19:43:39 61° W 19:48:18 10° NNW
Cosmos 1943 Rocket 2.3 19:39:16 10° NNW 19:44:17 55° NNE 19:44:17 55° NNE
Cosmos 1633 Rocket 3.8 19:41:52 10° SSW 19:46:10 53° WNW 19:48:44 23° N
Aureole 1 Rocket 4.1 19:40:13 10° SSW 19:46:16 88° ESE 19:52:42 16° NNE
Cosmos 2219 Rocket 3.9 19:43:07 10° W 19:47:54 27° NW 19:51:28 15° NNE
Cosmos 1242 Rocket 4.3 19:50:00 10° NNW 19:53:07 31° W 19:53:29 30° WSW
Helios 1A 4.2 19:56:36 36° NNW 19:56:36 36° NNW 19:59:11 10° NNW
Cosmos 1603 3.8 19:49:22 10° SSW 19:54:02 58° SSE 19:54:02 58° SSE
Cosmos 2333 Rocket 3.8 19:50:19 10° W 19:55:14 30° NW 19:58:33 17° N
Cosmos 2263 4.0 19:49:44 10° NNW 19:55:24 86° ENE 19:55:38 82° ESE
Cosmos 1553 Rocket 3.8 19:50:51 10° N 19:57:03 75° ENE 19:57:36 70° ESE
Cosmos 2322 Rocket 4.4 19:55:58 10° NNW 19:58:18 12° N 19:59:38 12° N
Cosmos 972 Rocket 4.3 19:53:29 10° NNW 19:58:37 67° WSW 20:00:40 38° S
Cosmos 1092 Rocket 4.2 19:52:18 10° SSW 19:58:38 70° WNW 20:05:00 10° N
Cosmos 839 Rocket 4.1 20:01:47 10° NW 20:07:55 59° NNE 20:07:55 59° NNE
Cosmos 2056 Rocket 3.9 20:06:53 10° NNW 20:11:02 58° NW 20:11:02 58° NW
CENTAUR R/B 3.7 20:06:30 10° WNW 20:12:48 38° N 20:14:43 33° NNE
Cosmos 1624 Rocket 4.4 20:11:19 10° NNW 20:16:00 63° WNW 20:16:00 63° WNW
USA 229 DEB 3.6 20:15:15 10° SW 20:22:08 87° SSE 20:22:08 87° SSE
USA 229 3.6 20:15:21 10° SW 20:22:11 87° SSE 20:22:11 87° SSE
Cosmos 2369 Rocket 2.9 20:18:24 10° NW 20:23:50 48° WSW 20:24:42 45° SW
Cosmos 2237 Rocket 4.1 20:21:56 10° W 20:26:32 25° NW 20:28:45 20° N
COSMOS 2455 4.4 20:25:36 10° NW 20:29:18 24° N 20:29:18 24° N
Resurs 01 Rocket 3.8 20:28:11 10° SSW 20:31:49 24° W 20:35:27 10° NW
SL-16 R/B 3.5 20:29:24 10° WSW 20:34:35 36° NW 20:35:45 33° NNW
CZ-4C R/B 3.0 20:48:19 10° NW 20:53:53 64° NW 20:53:53 64° NW
Lacrosse 5 4.1 21:03:53 10° WNW 21:05:45 23° WNW 21:05:45 23° WNW
ATLAS 5 CENTAUR R/B 3.7 21:07:00 10° NW 21:10:32 34° WNW 21:10:32 34° WNW
ATLAS 3B R/B 3.7 21:16:07 10° NW 21:20:25 40° NW 21:20:25 40° NW
Cosmos 1943 Rocket 4.2 21:23:22 10° NW 21:25:50 23° WNW 21:25:50 23° WNW
CENTAUR R/B 4.4 21:58:26 10° NW 22:01:54 28° NNW 22:01:54 28° NNW
